"TOA5","AWS1","CR1000","7964","CR1000.Std.14","CPU:AWS1_114.CR1","64363","TBL110"
"TIMESTAMP","RECORD","Wind_spd_WVc(1)","Wind_spd_WVc(2)","Air_Temp_Avg","Humidity_Avg","SW_upper_Wm2_Avg","Rain_Tot","Press_Avg","Issui_Tot","Depth_cm","SR50A_Raw","Quality","Ground_Temp_Avg(1)","Ground_Temp_Avg(2)","SW_lower_Wm2_Avg","Albedo_Avg","SWC_per(1)","SWC_per(2)","Period(1)","Period(2)"
"TS","RN","","","","","","","","","","","","","","","","","","",""
"","","WVc","WVc","Avg","Avg","Avg","Tot","Avg","Tot","Smp","Smp","Smp","Avg","Avg","Avg","Avg","Smp","Smp","Smp","Smp"
"2016-01-16 00:00:00",218221,0.493,281.1,-4.834,68.52,0,0,862.7974,0,11.76,3.09,175,1.859,2.545,0.6712071,0,50.39,57.86,33.39,35.18
"2016-01-16 00:10:00",218222,0.294,313.8,-5.273,73.95,0,0,863.0148,
"2016-01-16 00:10:00",218222,0.294,313.8,-5.273,73.95,0,0,863.0148,0,11.54,3.098,176,1.87,2.544,0.1827682,0,50.39,57.86,33.39,35.18
"2016-01-16 00:20:00",218223,0.141,351,-6.099,83.2,0,0,862.9576,0,11.66,3.099,171,1.868,2.55,0,0,50.39,57.91,33.39,35.2
"2016-01-16 00:30:00",218224,0.229,117.5,-6.342,84.1,0,0,862.7531,0,11.98,3.095,172,1.849,2.56,0,0,50.39,57.86,33.39,35.18
"2016-01-16 00:40:00",218225,0.363,293.2,-5.392,74.84,0,0,862.77,0,11.56,3.094,176,1.849,2.572,0.580196,0,50.39,57.86,33.39,35.18
"2016-01-16 00:50:00",218226,0.477,341.7,-5.114,74.21,0,0,862.8796,0,11.49,3.094,181,1.849,2.575,0.3678366,0,50.39,57.86,33.39,35.18
"2016-01-16 01:00:00",218227,0.573,336.5,-5.076,74.38,0,0,863.0377,0,11.66,3.092,175,1.855,2.576,0.4550556,0,50.33,57.86,33.38,35.18
"2016-01-16 01:10:00",218228,0.504,173,-5.167,74.02,0,0,863.0482,0,11.49,3.097,176,1.846,2.548,0.3374996,0,50.39,57.86,33.39,35.18
"2016-01-16 01:20:00",218229,0.842,99.2,-5.641,76.92,0,0,863.0377,0,11.76,3.093,177,1.846,2.556,0.117556,0,50.39,57.86,33.39,35.18
"2016-01-16 01:30:00",218230,0.595,63.94,-5.245,77,0,0,863.0377,0,11.59,3.093,176,1.846,2.557,0.6332857,0,50.33,57.86,33.38,35.18
"2016-01-16 01:40:00",218231,0.921,33.03,-4.986,76.22,0,0,863.0546,0,11.74,3.09,177,1.848,2.557,0.6749992,0,50.33,57.86,33.38,35.18
"2016-01-16 01:50:00",218232,0.475,358.9,-4.777,75.1,0,0,863.2211,0,11.71,3.09,177,1.851,2.545,0.6219093,0,50.39,57.86,33.39,35.18
"2016-01-16 02:00:00",218233,0.397,358.8,-4.871,75.68,0,0,863.0735,0,11.56,3.092,172,1.846,2.541,0.087219,0,50.33,57.86,33.38,35.18
"2016-01-16 02:10:00",218234,0.216,268.6,-4.928,75.08,0,0,863.0419,0,11.17,3.096,172,1.846,2.547,0,0,50.39,57.86,33.39,35.18
"2016-01-16 02:20:00",218235,0.068,111.6,-4.755,71.81,0,0,863.0693,0,11.27,3.094,181,1.846,2.564,0.07963474,0,50.39,57.86,33.39,35.18
"2016-01-16 02:30:00",218236,0.233,183.5,-4.995,72.9,0,0,863.0334,0,11.56,3.093,172,1.846,2.58,0.01137639,0,50.39,57.86,33.39,35.18
"2016-01-16 02:40:00",218237,0.087,57.09,-5.103,73.58,0,0,863.0735,0,11.07,3.099,181,1.846,2.581,0.0379213,0,50.39,57.86,33.39,35.18
"2016-01-16 02:50:00",218238,0.268,48.01,-5.854,77.71,0,0,863.2484,0,11.56,3.097,180,1.851,2.617,0.01516852,0,50.39,57.86,33.39,35.18
"2016-01-16 03:00:00",218239,0.276,313.3,-5.592,79.07,0,0,863.0629,0,11.44,3.097,180,1.861,2.62,0.261657,0,50.33,57.86,33.38,35.18
"2016-01-16 03:10:00",218240,0.508,28.69,-5.184,76.08,0,0,863.259,0,11.71,3.091,172,1.856,2.607,0.9442405,0,50.39,57.86,33.39,35.18
"2016-01-16 03:20:00",218241,0.388,50.52,-4.883,73.78,0,0,863.1663,0,11.54,3.092,177,1.847,2.588,1.027667,0,50.39,57.86,33.39,35.18
"2016-01-16 03:30:00",218242,0.435,46.31,-4.72,72.25,0,0,863.0334,0,11.56,3.091,172,1.846,2.575,1.012499,0,50.39,57.86,33.39,35.18
"2016-01-16 03:40:00",218243,0.345,204.7,-4.729,73.03,0,0,863.0377,0,11.14,3.096,185,1.846,2.561,0.5726116,0,50.39,57.86,33.39,35.18
"2016-01-16 03:50:00",218244,0.339,347,-4.978,76.29,0,0,863.2021,0,11.31,3.095,187,1.846,2.572,0.2844098,0,50.39,57.86,33.39,35.18
"2016-01-16 04:00:00",218245,0.565,270.4,-4.952,77.2,0,0,863.0967,0,11.41,3.095,193,1.846,2.554,0.318539,0,50.33,57.86,33.38,35.18
"2016-01-16 04:10:00",218246,0.357,222.2,-5.166,80.2,0,0,863.0609,0,11.36,3.096,197,1.846,2.545,0.1478931,0,50.39,57.86,33.39,35.18
"2016-01-16 04:20:00",218247,0.343,122.5,-5.38,82.3,0,0,863.0398,0,11.61,3.095,176,1.846,2.541,0,0,50.39,57.86,33.39,35.18
"2016-01-16 04:30:00",218248,0.356,126.6,-5.527,83.6,0,0,862.8185,0,11.51,3.097,177,1.846,2.563,0,0,50.39,57.86,33.39,35.18
"2016-01-16 04:40:00",218249,0.457,144.1,-5.577,84.8,0,0,862.8459,0,11.49,3.097,181,1.846,2.559,0.1099718,0,50.39,57.86,33.39,35.18
"2016-01-16 04:50:00",218250,0.655,174.4,-5.481,84.7,0,0,862.9892,0,11.31,3.098,177,1.846,2.539,0.318539,0,50.39,57.86,33.39,35.18
"2016-01-16 05:00:00",218251,0.469,170.8,-5.576,86.1,0,0,863.0377,0,11.16,3.101,192,1.846,2.54,0.1820223,0,50.39,57.86,33.39,35.18
"2016-01-16 05:10:00",218252,0.522,186.4,-5.618,88.1,0,0,863.2,0,11.36,3.098,198,1.846,2.539,0.2275278,0,50.39,57.86,33.39,35.18
"2016-01-16 05:20:00",218253,0.288,200.3,-5.566,88.8,0,0,863.4635,0,11.66,3.095,195,1.846,2.543,0.2275278,0,50.33,57.86,33.38,35.18
"2016-01-16 05:30:00",218254,0.246,64.3,-5.57,89.2,0,0,863.5499,0,12.35,3.088,190,1.846,2.54,0.2275278,0,50.39,57.86,33.39,35.18
"2016-01-16 05:40:00",218255,0.283,13.28,-5.424,88.4,0,0,863.7016,0,11.93,3.091,193,1.846,2.538,0.2654491,0,50.39,57.86,33.39,35.18
"2016-01-16 05:50:00",218256,0.455,324.6,-5.372,88.7,0,0,863.5478,0,12.18,3.089,197,1.846,2.538,0.261657,0,50.39,57.86,33.39,35.18
"2016-01-16 06:00:00",218257,0.477,197.6,-5.526,89.8,0,0,863.7354,0,11.83,3.094,200,1.846,2.538,0.03412917,0,50.39,57.86,33.39,35.18
"2016-01-16 06:10:00",218258,0.573,238.4,-5.762,92.5,0,0,863.9103,0,11.96,3.093,200,1.846,2.54,0,0,50.39,57.86,33.39,35.18
"2016-01-16 06:20:00",218259,0.588,249.5,-5.598,91.9,0,0,863.9229,0,12.03,3.091,200,1.846,2.539,0.1630616,0,50.39,57.86,33.39,35.18
"2016-01-16 06:30:00",218260,0.631,201.9,-5.544,91.7,0,0,863.9777,0,11.96,3.092,201,1.846,2.54,0.2009829,0,50.39,57.86,33.39,35.18
"2016-01-16 06:40:00",218261,0.617,241.2,-5.513,93,0,0,864.0536,0,12.11,3.09,197,1.846,2.539,0.2275278,0,50.39,57.86,33.39,35.18
"2016-01-16 06:50:00",218262,0.708,268,-5.465,93.3,0,0,864.2897,0,11.78,3.093,200,1.846,2.54,0.3830051,0,50.39,57.86,33.39,35.18
"2016-01-16 07:00:00",218263,0.646,263.2,-5.363,92.6,0.129788,0,864.3087,0,11.21,3.098,196,1.846,2.538,1.095926,2.925,50.33,57.86,33.38,35.18
"2016-01-16 07:10:00",218264,0.826,280.5,-5.317,92,0.7040014,0,864.5195,0,10.74,3.103,217,1.846,2.539,2.354913,3.926,50.39,57.86,33.39,35.18
"2016-01-16 07:20:00",218265,0.514,251,-5.302,91.8,2.115937,0,864.4288,0,11.61,3.094,197,1.846,2.538,4.683281,2.259,50.39,57.86,33.39,35.18
"2016-01-16 07:30:00",218266,0.315,146.6,-5.318,91.3,4.798222,0,864.4667,0,11.44,3.096,198,1.846,2.54,9.961926,2.07,50.39,57.86,33.39,35.18
"2016-01-16 07:40:00",218267,0.429,219.7,-5.268,91.4,8.23957,0,864.5553,0,11.44,3.095,193,1.846,2.538,17.70166,2.149,50.39,57.86,33.39,35.18
"2016-01-16 07:50:00",218268,0.606,253.8,-5.192,90.2,10.61115,0,864.5532,0,11.51,3.094,194,1.846,2.538,22.91584,2.159,50.39,57.86,33.39,35.18
"2016-01-16 08:00:00",218269,0.498,196.6,-5.141,90.4,10.83926,0,864.7155,0,11.69,3.092,194,1.846,2.538,23.02202,2.122,50.39,57.86,33.39,35.18
"2016-01-16 08:10:00",218270,0.665,183.2,-5.05,90,17.52531,0,864.7449,0,11.76,3.091,198,1.855,2.54,36.75332,2.106,50.39,57.86,33.39,35.18
"2016-01-16 08:20:00",218271,0.416,197.3,-4.929,89.7,19.38954,0,864.8039,0,11.69,3.091,194,1.905,2.588,40.40515,2.081,50.39,57.86,33.39,35.18
"2016-01-16 08:30:00",218272,0.539,185.2,-4.829,89.2,24.28608,0,864.8082,0,11.46,3.094,188,1.905,2.625,50.14334,2.058,50.39,57.86,33.39,35.18
"2016-01-16 08:40:00",218273,0.769,168.3,-4.826,89.7,36.21478,0,864.863,0,11.29,3.093,199,1.902,2.618,71.14037,1.992,50.33,57.86,33.38,35.18
"2016-01-16 08:50:00",218274,0.684,190.8,-4.37,86.5,39.9275,0,865.0231,0,11.86,3.087,197,1.947,2.619,84.83375,2.116,50.39,57.86,33.39,35.18
"2016-01-16 09:00:00",218275,0.711,167.8,-4.062,84.5,47.1445,0,864.8398,0,11.49,3.087,189,1.939,2.649,101.0716,2.128,50.39,57.86,33.39,35.18
"2016-01-16 09:10:00",218276,0.578,206.3,-4.148,82.4,44.13971,0,864.9156,0,11.69,3.086,192,1.932,2.638,91.34483,2.062,50.33,57.86,33.38,3
"2016-01-16 09:10:00",218276,0.578,206.3,-4.148,82.4,44.13971,0,864.9156,0,11.69,3.086,192,1.932,2.638,91.34483,2.062,50.33,57.86,33.38,35.18
"2016-01-16 09:20:00",218277,0.731,179.1,-3.786,80.8,49.24076,0,865.0418,0,11.99,3.08,188,1.908,2.63,103.5175,2.099,50.39,57.86,33.39,35.18
"2016-01-16 09:30:00",218278,0.691,192,-3.387,78.66,67.07327,0,864.8157,0,11.81,3.08,183,1.947,2.63,137.8178,2.06,50.39,57.86,33.39,35.18
"2016-01-16 09:40:00",218279,0.504,263.4,-3.373,76.82,55.1117,0,864.8528,0,11.82,3.083,181,1.893,2.603,109.374,1.969,50.39,57.86,33.39,35.18
"2016-01-16 09:50:00",218280,0.763,321.8,-4.079,76.89,45.18189,0,864.9702,0,11.93,3.085,186,1.882,2.597,85.38018,1.883,50.39,57.86,33.39,35.18
"2016-01-16 10:00:00",218281,1.118,286.1,-4.239,76.79,46.11546,0,865.0602,0,11.64,3.089,192,1.894,2.586,86.68015,1.851,50.39,57.86,33.39,35.18
"2016-01-16 10:10:00",218282,1.343,271.5,-4.619,76.77,26.54266,0,865.0485,0,11.66,3.09,192,1.887,2.575,48.28054,1.795,50.39,57.86,33.39,35.18
"2016-01-16 10:20:00",218283,0.713,204.7,-4.094,75.65,61.95476,0,865.0165,0,11.87,3.082,185,1.884,2.582,125.2344,2.012,50.39,57.86,33.39,35.18
"2016-01-16 10:30:00",218284,0.537,278.3,-3.55,70.67,82.10818,0,865.2167,0,11.79,3.081,195,1.876,2.579,156.0575,1.922,50.39,57.86,33.39,35.18
"2016-01-16 10:40:00",218285,0.614,327.7,-3.377,68.58,62.35957,0,864.9764,0,11.67,3.084,189,1.844,2.544,126.7998,2.021,50.39,57.86,33.39,35.18
"2016-01-16 10:50:00",218286,0.493,299.6,-3.521,68.3,87.58884,0,864.8248,0,11.37,3.086,195,1.845,2.538,119.7716,1.546,50.39,57.86,33.39,35.18
"2016-01-16 11:00:00",218287,0.72,265.3,-3.376,66.73,154.0845,0,864.7109,0,11.4,3.084,195,1.845,2.532,152.695,1.156,50.39,57.86,33.39,35.18
"2016-01-16 11:10:00",218288,0.517,302.8,-3.654,68.66,42.26109,0,864.5066,0,11.1,3.091,195,1.846,2.536,71.88567,1.689,50.39,57.86,33.39,35.18
"2016-01-16 11:20:00",218289,0.294,290.3,-3.726,68.94,86.62166,0,864.5002,0,11.5,3.084,202,1.847,2.549,168.897,1.953,50.39,57.86,33.39,35.18
"2016-01-16 11:30:00",218290,0.606,312.8,-3.249,64.29,109.3897,0,864.2151,0,11.25,3.085,204,1.821,2.503,186.168,1.782,50.39,57.86,33.39,35.18
"2016-01-16 11:40:00",218291,0.278,313.4,-3.005,65.65,58.13546,0,864.2011,0,11.21,3.086,210,1.838,2.505,111.4591,1.909,50.39,57.86,33.39,35.18
"2016-01-16 11:50:00",218292,0.519,343.7,-3.398,66.13,45.05252,0,864.1168,0,10.87,3.092,201,1.81,2.487,69.38917,1.589,50.39,57.86,33.39,35.18
"2016-01-16 12:00:00",218293,0.548,282.3,-3.177,62.61,152.4038,0,863.8866,0,10.19,3.094,218,1.789,2.465,233.709,1.606,50.39,57.86,33.39,35.18
"2016-01-16 12:10:00",218294,0.696,305.7,-2.63,61.75,114.2518,0,863.8417,0,10.17,3.095,216,1.856,2.505,200.537,1.776,50.39,57.86,33.39,35.18
"2016-01-16 12:20:00",218295,0.555,268.6,-2.854,64.66,123.6047,0,863.8079,0,9.61,3.098,201,1.874,2.543,195.1698,1.672,50.39,57.86,33.39,35.18
"2016-01-16 12:30:00",218296,0.364,311,-2.525,62.66,100.6761,0,863.6957,0,9.89,3.095,203,1.887,2.577,165.3255,1.749,50.39,57.91,33.39,35.2
"2016-01-16 12:40:00",218297,0.505,289.1,-2.776,66.96,74.56571,0,863.6619,0,11,3.086,237,1.882,2.577,125.8551,1.771,50.39,57.86,33.39,35.18
"2016-01-16 12:50:00",218298,0.398,273.9,-2.326,62.14,238.0852,0,863.6133,0,10.82,3.082,204,1.865,2.576,276.152,1.166,50.39,57.86,33.39,35.18
"2016-01-16 13:00:00",218299,0.638,285.9,-2.697,65.25,76.731,0,863.5354,0,11.5,3.083,201,1.823,2.571,134.0173,1.796,50.33,57.86,33.38,35.18
"2016-01-16 13:10:00",218300,0.415,272.6,-3.205,69.44,54.82357,0,863.4849,0,11.7,3.081,201,1.871,2.576,98.37657,1.794,50.39,57.86,33.39,35.18
"2016-01-16 13:20:00",218301,0.418,267.7,-3.262,69.82,49.3644,0,863.3627,0,11.75,3.081,194,1.885,2.576,79.42506,1.604,50.39,57.86,33.39,35.18
"2016-01-16 13:30:00",218302,0.319,279.1,-3.528,71.21,49.31331,0,863.3732,0,11.4,3.086,184,1.885,2.563,67.81769,1.348,50.39,57.86,33.39,35.18
"2016-01-16 13:40:00",218303,0.371,299.4,-3.339,65.39,111.7066,0,863.3879,0,11.85,3.08,179,1.885,2.559,106.0997,1.096,50.39,57.86,33.39,35.18
"2016-01-16 13:50:00",218304,0.725,273.5,-2.879,59.24,135.2176,0,863.2595,0,11.56,3.078,183,1.883,2.556,124.4448,0.957,50.39,57.86,33.39,35.18
"2016-01-16 14:00:00",218305,0.695,137.7,-2.205,57.6,86.16761,0,863.1142,0,11.56,3.076,184,1.885,2.565,104.5801,1.422,50.39,57.86,33.39,35.18
"2016-01-16 14:10:00",218306,1.008,145,-2.136,56.64,65.00301,0,863.11,0,11.66,3.075,186,1.882,2.538,70.80385,1.121,50.39,57.86,33.39,35.18
"2016-01-16 14:20:00",218307,0.94,147.1,-2.329,57.42,97.33749,0,863.289,0,11.95,3.076,192,1.882,2.512,53.40226,0.767,50.39,57.86,33.39,35.18
"2016-01-16 14:30:00",218308,0.942,121.5,-2.436,59.09,35.19965,0,863.1163,0,12.2,3.072,180,1.851,2.469,57.54802,1.656,50.39,57.86,33.39,35.18
"2016-01-16 14:40:00",218309,0.982,139.1,-2.13,58.68,52.78375,0,863.053,0,12.36,3.067,177,1.811,2.451,82.39606,1.558,50.39,57.86,33.39,35.18
"2016-01-16 14:50:00",218310,0.827,165.4,-1.879,58.54,51.37671,0,863.0594,0,12.01,3.07,175,1.799,2.464,80.67561,1.57,50.39,57.86,33.39,35.18
"2016-01-16 15:00:00",218311,0.557,356,-1.703,57.06,59.9408,0,863.0784,0,12.01,3.069,176,1.816,2.476,95.0304,1.586,50.39,57.86,33.39,35.18
"2016-01-16 15:10:00",218312,0.497,37.85,-1.76,56.8,54.43054,0,863.11,0,11.96,3.07,185,1.846,2.485,85.65128,1.577,50.39,57.86,33.39,35.18
"2016-01-16 15:20:00",218313,0.243,281.2,-1.709,57.61,36.60669,0,863.0194,0,11.96,3.071,185,1.809,2.456,63.52413,1.743,50.33,57.86,33.38,35.18
"2016-01-16 15:30:00",218314,0.363,304.7,-1.827,58.79,23.14153,0,863.0194,0,12.11,3.07,192,1.772,2.409,38.67609,1.676,50.33,57.86,33.38,35.18
"2016-01-16 15:40:00",218315,0.222,253.9,-2.069,61.98,21.96637,0,863.1078,0,12.06,3.071,188,1.727,2.421,40.39655,1.838,50.39,57.86,33.39,35.18
"2016-01-16 15:50:00",218316,0.31,277.5,-2.178,63.18,13.41408,0,863.2068,0,12.05,3.072,189,1.754,2.463,23.35498,1.764,50.39,57.86,33.39,35.18
"2016-01-16 16:00:00",218317,0.392,273.7,-2.46,62.88,7.939284,0,863.3522,0,12,3.074,184,1.774,2.493,17.36013,2.189,50.39,57.86,33.39,35.18
"2016-01-16 16:10:00",218318,0.16,223.8,-2.55,62.76,5.950729,0,863.3648,0,11.79,3.077,180,1.81,2.502,13.11243,2.206,50.39,57.86,33.39,35.18
"2016-01-16 16:20:00",218319,0.306,235.4,-2.645,64.21,4.536214,0,863.3914,0,12.12,3.074,189,1.837,2.528,10.74493,2.372,50.39,57.86,33.39,35.18
"2016-01-16 16:30:00",218320,0.229,251.6,-2.875,64.86,3.321865,0,863.4229,0,12.26,3.074,189,1.86,2.57,8.85066,2.706,50.39,57.86,33.39,35.18
"2016-01-16 16:40:00",218321,0.129,225.7,-2.942,65.62,1.859579,0,863.4437,0,11.93,3.078,185,1.877,2.601,6.815638,3.752,50.39,57.86,33.39,35.18
"2016-01-16 16:50:00",218322,0.102,206.4,-3.116,68.05,0.3734978,0,863.5645,0,11.87,3.08,184,1.892,2.582,4.427633,5.728,50.33,57.86,33.38,35.18
"2016-01-16 17:00:00",218323,0.049,261.5,-3.464,73.08,0,0,863.5873,0,11.82,3.083,180,1.882,2.575,2.020507,0,50.33,57.86,33.38,35.18
"2016-01-16 17:10:00",218324,0.007,206.2,-3.79,76.41,0,0,863.7142,0,11.69,3.085,177,1.856,2.578,0.5307164,0,50.33,57.86,33.38,35.18
"2016-01-16 17:20:00",218325,0.029,278,-3.991,77.87,0,0,863.7311,0,11.84,3.085,180,1.883,2.582,0,0,50.39,57.86,33.39,35.18
"2016-01-16 17:30:00",218326,0.068,281.9,-4.238,80,0,0,863.9144,0,11.54,3.089,181,1.886,2.595,0,0,50.39,57.86,33.39,35.18
"2016-01-16 17:40:00",218327,0.02,283.9,-4.49,82.5,0,0,863.9461,0,11.71,3.089,190,1.876,2.546,0,0,50.39,57.86,33.39,35.18
"2016-01-16 17:50:00",218328,0.006,276.2,-4.691,83.8,0,0,863.9461,0,11.89,3.088,187,1.88,2.536,0,0,50.33,57.86,33.38,35.18
"2016-01-16 18:00:00",218329,0.171,264.2,-4.835,83.2,0,0,863.9587,0,11.96,3.087,188,1.861,2.518,0.2009143,0,50.39,57.86,33.39,35.18
"2016-01-16 18:10:00",218330,0.256,319.4,-4.59,79.43,0,0,863.9566,0,11.48,3.093,179,1.851,2.484,0.7392153,0,50.39,57.86,33.39,35.18
"2016-01-16 18:20:00",218331,0.022,129.4,-4.988,80.5,0,0,863.9879,0,11.87,3.089,185,1.859,2.483,0,0,50.39,57.86,33.39,35.18
"2016-01-16 18:30:00",218332,0.102,85.1,-4.964,81.3,0,0,864.0551,0,12.2,3.086,176,1.879,2.524,0.01895804,0,50.44,57.86,33.41,35.18
"2016-01-16 18:40:00",218333,0.144,16.79,-4.717,80.5,0,0,864.0628,0,10.7,3.099,182,1.886,2.557,0.477769,0,50.33,57.86,33.38,35.18
"2016-01-16 18:50:00",218334,0.174,3.515,-4.397,79.15,0,0,864.237,0,11.77,3.087,177,1.886,2.566,1.198277,0,50.39,57.86,33.39,35.18
"2016-01-16 19:00:00",218335,0.236,8.51,-4.405,79.32,0,0,864.2808,0,11.84,3.088,180,1.858,2.559,0.8039234,0,50.39,57.86,33.39,35.18
"2016-01-16 19:10:00",218336,0.238,4.372,-4.559,80.6,0,0,864.346,0,11.91,3.087,188,1.867,2.574,0.3223303,0,50.39,57.86,33.39,35.18
"2016-01-16 19:20:00",218337,0.152,345.2,-4.723,81.2,0,0,864.4941,0,11.66,3.092,192,1.853,2.576,0.06825828,0,50.39,57.86,33.39,35.18
"2016-01-16 19:30:00",218338,0,0,-5.227,83.6,0,0,864.5553,0,11.29,3.098,188,1.848,2.58,0,0,50.33,57.86,33.38,35.18
"2016-01-16 19:40:00",218339,0.26,205.8,-6.432,84.9,0,0,864.5574,0,11.98,3.099,188,1.864,2.6,0,0,50.39,57.86,33.39,35.18
"2016-01-16 19:50:00",218340,0.225,186.2,-6.648,88.7,0,0,864.6058,0,11.78,3.099,189,1.889,2.62,0,0,50.39,57.86,33.39,35.18
"2016-01-16 20:00:00",218341,0.117,190.7,-6.575,88.1,0,0,864.6396,0,11.86,3.101,180,1.892,2.623,0,0,50.44,57.86,33.41,35.18
"2016-01-16 20:10:00",218342,0.343,188.2,-7.196,89.3,0,0,864.5553,0,11.86,3.103,194,1.91,2.623,0,0,50.39,57.86,33.39,35.18
"2016-01-16 20:20:00",218343,0.355,189.9,-7.2,91.3,0,0,864.5595,0,11.91,3.101,189,1.925,2.623,0,0,50.44,57.86,33.41,35.18
"2016-01-16 20:30:00",218344,0,0,-6.605,91,0,0,864.7829,0,11.44,3.105,195,1.931,2.623,0.2085672,0,50.39,57.86,33.39,35.18
"2016-01-16 20:40:00",218345,0.166,171.8,-7.248,89.7,0,0,864.6459,0,11.96,3.103,189,1.931,2.623,0,0,50.39,57.86,33.39,35.18
"2016-01-16 20:50:00",218346,0.122,175.2,-7.162,91.8,0,0,864.747,0,11.81,3.102,194,1.931,2.616,0.01516852,0,50.39,57.86,33.39,35.18
"2016-01-16 21:00:00",218347,0.264,191.4,-7.293,90.9,0,0,864.7829,0,12.01,3.102,194,1.931,2.612,0,0,50.39,57.86,33.39,35.18
"2016-01-16 21:10:00",218348,0.228,195.4,-7.501,91.5,0,0,864.6311,0,11.76,3.106,189,1.931,2.561,0,0,50.39,57.86,33.39,35.18
"2016-01-16 21:20:00",218349,0.281,198,-7.49,92.5,0,0,864.5595,0,11.86,3.105,176,1.931,2.563,0.1327246,0,50.44,57.86,33.41,35.18
"2016-01-16 21:30:00",218350,0.325,194.7,-7.626,92.8,0,0,864.6143,0,11.98,3.103,194,1.925,2.546,0.1668537,0,50.39,57.86,33.39,35.18
"2016-01-16 21:40:00",218351,0.068,194.9,-7.236,93.4,0,0,864.9177,0,11.66,3.105,176,1.888,2.543,0.2995783,0,50.39,57.86,33.39,35.18
"2016-01-16 21:50:00",218352,0.119,192.7,-7.556,91.9,0,0,864.9683,0,11.89,3.108,186,1.873,2.533,0.2882019,0,50.44,57.86,33.41,35.18
"2016-01-16 22:00:00",218353,0.077,191.9,-7.897,93.5,0,0,864.7933,0,11.71,3.107,181,1.88,2.497,0.1441009,0,50.39,57.86,33.39,35.18
"2016-01-16 22:10:00",218354,0.236,190,-7.955,93.2,0,0,864.7723,0,11.66,3.109,189,1.856,2.496,0.09480325,0,50.33,57.86,33.38,35.18
"2016-01-16 22:20:00",218355,0.289,187.6,-7.867,93.8,0,0,865.0042,0,11.93,3.107,181,1.86,2.506,0.4778295,0,50.39,57.86,33.39,35.18
"2016-01-16 22:30:00",218356,0.1,191.6,-7.968,92.5,0.01573366,0,865.0665,0,11.94,3.107,176,1.877,2.531,0.7812594,0.129,50.39,57.86,33.39,35.18
"2016-01-16 22:40:00",218357,0.23,193.6,-7.688,93,0,0,865.1581,0,11.84,3.106,181,1.908,2.519,0.9026486,0,50.39,57.86,33.39,35.18
"2016-01-16 22:50:00",218358,0.13,147.2,-7.59,92.1,0,0,865.2042,0,11.83,3.105,181,1.932,2.528,0.6144354,0,50.39,57.86,33.39,35.18
"2016-01-16 23:00:00",218359,0.17,162.8,-7.49,93.1,0,0,865.2727,0,11.78,3.103,177,1.953,2.538,0.4589308,0,50.39,57.86,33.39,35.18
"2016-01-16 23:10:00",218360,0.132,158,-6.984,95.9,0,0,865.3053,0,11.71,3.102,187,1.96,2.564,0.6258047,0,50.33,57.86,33.38,35.18
"2016-01-16 23:20:00",218361,0.159,148.8,-7.33,95.9,0.1376771,0,864.9908,0,12.62,3.098,186,1.952,2.555,0.06826977,0,50.39,57.86,33.39,35.18
"2016-01-16 23:30:00",218362,0.473,148.2,-7.596,95.7,0,0,864.8411,0,11.69,3.108,177,1.94,2.522,0.06068442,0,50.39,57.86,33.39,35.18
"2016-01-16 23:40:00",218363,0.233,199.7,-7.865,94.8,0,0,864.9952,0,11.89,3.106,191,1.911,2.534,0,0,50.39,57.86,33.39,35.18
"2016-01-16 23:50:00",218364,0.311,196.7,-7.882,94.4,0,0,864.8807,0,11.84,3.107,176,1.906,2.533,0,0,50.39,57.86,33.39,35.18
